When you browse on this site, cookies collect data to enhance your experience and personalize the content and advertising you see.
Visit our Privacy Policy to learn more. By continuing to use the site, you agree to this use of cookies and data.
  • In United Kingdom
  • List of Countries
  • For 7 days
  • Water Temperature
  • Satellite Maps
  • Weather Map
  • Weather Widgets
  • user-avatar
    Login

    Hourly Weather Megri

    Today, 20 May, Monday

    Time Temperature Precipitation Wind Pressure Humidity
    00:00 +16°C° 0.1 mm 2 mps 621 mmHg 50%
    01:00 +16°C° 0.1 mm 2 mps 621 mmHg 50%
    02:00 +15°C° 0.1 mm 2 mps 621 mmHg 51%
    03:00 +15°C° 0 mm 2 mps 621 mmHg 55%
    04:00 +15°C° 0.4 mm 2 mps 621 mmHg 56%
    05:00 +16°C° 0.4 mm 2 mps 621 mmHg 56%
    06:00 +16°C° 0.4 mm 1 mps 621 mmHg 57%
    07:00 +18°C° 0 mm 2 mps 622 mmHg 50%
    08:00 +19°C° 0 mm 3 mps 623 mmHg 44%
    09:00 +21°C° 0 mm 4 mps 623 mmHg 37%
    10:00 +22°C° 0 mm 4 mps 623 mmHg 34%
    11:00 +23°C° 0 mm 5 mps 623 mmHg 30%
    12:00 +23°C° 0 mm 5 mps 623 mmHg 27%
    13:00 +23°C° 0 mm 5 mps 623 mmHg 26%
    14:00 +25°C° 0 mm 4 mps 623 mmHg 25%
    15:00 +25°C° 0 mm 3 mps 623 mmHg 23%
    16:00 +24°C° 0.2 mm 3 mps 623 mmHg 28%
    17:00 +22°C° 0.2 mm 3 mps 622 mmHg 33%
    18:00 +20°C° 0.2 mm 2 mps 622 mmHg 38%
    19:00 +19°C° 0.1 mm 2 mps 622 mmHg 46%
    20:00 +17°C° 0.1 mm 2 mps 622 mmHg 54%
    21:00 +16°C° 0.1 mm 2 mps 622 mmHg 62%
    22:00 +15°C° 0.2 mm 2 mps 622 mmHg 66%
    23:00 +14°C° 0.2 mm 2 mps 622 mmHg 69%

    Tomorrow, 21 May, Tuesday

    Time Temperature Precipitation Wind Pressure Humidity
    00:00 +14°C° 0.2 mm 2 mps 622 mmHg 73%
    01:00 +13°C° 0.1 mm 2 mps 622 mmHg 76%
    02:00 +12°C° 0.1 mm 2 mps 622 mmHg 79%
    03:00 +12°C° 0.1 mm 2 mps 622 mmHg 82%
    04:00 +12°C° 0.2 mm 2 mps 622 mmHg 81%
    05:00 +12°C° 0.2 mm 2 mps 622 mmHg 81%
    06:00 +11°C° 0.2 mm 3 mps 622 mmHg 80%
    07:00 +12°C° 0.5 mm 3 mps 623 mmHg 74%
    08:00 +13°C° 0.5 mm 3 mps 623 mmHg 68%
    09:00 +14°C° 0.5 mm 3 mps 624 mmHg 62%
    10:00 +16°C° 0.4 mm 3 mps 624 mmHg 59%
    11:00 +17°C° 0.4 mm 3 mps 624 mmHg 56%
    12:00 +17°C° 0.4 mm 3 mps 625 mmHg 53%
    13:00 +17°C° 1.2 mm 3 mps 625 mmHg 52%
    14:00 +18°C° 1.2 mm 4 mps 625 mmHg 52%
    15:00 +18°C° 1.2 mm 4 mps 625 mmHg 51%
    16:00 +17°C° 0.9 mm 4 mps 624 mmHg 55%
    17:00 +15°C° 0.9 mm 4 mps 624 mmHg 60%
    18:00 +14°C° 0.9 mm 4 mps 624 mmHg 64%
    19:00 +13°C° 0.1 mm 4 mps 624 mmHg 68%
    20:00 +12°C° 0.1 mm 3 mps 624 mmHg 72%
    21:00 +11°C° 0.1 mm 3 mps 624 mmHg 77%
    22:00 +10°C° 0 mm 3 mps 624 mmHg 79%
    23:00 +10°C° 0 mm 3 mps 624 mmHg 81%

    Day after tomorrow, 22 May, Wednesday

    Time Temperature Precipitation Wind Pressure Humidity
    00:00 +9°C° 0 mm 2 mps 624 mmHg 83%
    01:00 +9°C° 0 mm 2 mps 624 mmHg 84%
    02:00 +9°C° 0 mm 2 mps 623 mmHg 84%
    03:00 +9°C° 0 mm 2 mps 623 mmHg 84%
    04:00 +9°C° 0 mm 2 mps 623 mmHg 81%
    05:00 +10°C° 0 mm 2 mps 624 mmHg 78%
    06:00 +10°C° 0 mm 2 mps 624 mmHg 75%
    07:00 +13°C° 0 mm 2 mps 624 mmHg 67%
    08:00 +15°C° 0 mm 1 mps 625 mmHg 59%
    09:00 +16°C° 0 mm 1 mps 625 mmHg 51%
    10:00 +19°C° 0 mm 1 mps 625 mmHg 47%
    11:00 +20°C° 0 mm 1 mps 625 mmHg 42%
    12:00 +21°C° 0 mm 1 mps 625 mmHg 38%
    13:00 +22°C° 0 mm 1 mps 625 mmHg 37%
    14:00 +21°C° 0 mm 2 mps 625 mmHg 35%
    15:00 +23°C° 0 mm 2 mps 624 mmHg 34%
    16:00 +20°C° 0.8 mm 2 mps 624 mmHg 43%
    17:00 +19°C° 0.8 mm 2 mps 623 mmHg 52%
    18:00 +18°C° 0.8 mm 1 mps 622 mmHg 60%
    19:00 +16°C° 0.1 mm 1 mps 622 mmHg 65%
    20:00 +15°C° 0.1 mm 1 mps 623 mmHg 69%
    21:00 +14°C° 0.1 mm 1 mps 623 mmHg 74%
    22:00 +14°C° 0 mm 1 mps 623 mmHg 76%
    23:00 +13°C° 0 mm 1 mps 622 mmHg 78%

    23 May, Thursday

    Time Temperature Precipitation Wind Pressure Humidity
    00:00 +13°C° 0 mm 1 mps 622 mmHg 80%
    01:00 +12°C° 0 mm 1 mps 622 mmHg 81%
    02:00 +12°C° 0 mm 1 mps 622 mmHg 83%
    03:00 +11°C° 0 mm 1 mps 621 mmHg 84%
    04:00 +12°C° 0 mm 1 mps 622 mmHg 80%
    05:00 +13°C° 0 mm 1 mps 622 mmHg 76%
    06:00 +14°C° 0 mm 1 mps 622 mmHg 72%
    07:00 +15°C° 0 mm 2 mps 623 mmHg 62%
    08:00 +17°C° 0 mm 2 mps 623 mmHg 51%
    09:00 +18°C° 0 mm 3 mps 624 mmHg 41%
    10:00 +19°C° 0 mm 3 mps 624 mmHg 37%
    11:00 +20°C° 0 mm 4 mps 624 mmHg 33%
    12:00 +21°C° 0 mm 4 mps 624 mmHg 29%
    13:00 +22°C° 0 mm 4 mps 624 mmHg 28%
    14:00 +22°C° 0 mm 4 mps 623 mmHg 27%
    15:00 +23°C° 0 mm 4 mps 623 mmHg 26%
    16:00 +22°C° 0 mm 4 mps 623 mmHg 30%
    17:00 +21°C° 0 mm 3 mps 623 mmHg 33%
    18:00 +21°C° 0 mm 3 mps 622 mmHg 36%
    19:00 +19°C° 0 mm 2 mps 622 mmHg 43%
    20:00 +17°C° 0 mm 2 mps 622 mmHg 51%
    21:00 +15°C° 0 mm 2 mps 622 mmHg 58%
    22:00 +14°C° 0 mm 2 mps 622 mmHg 62%
    23:00 +14°C° 0 mm 2 mps 622 mmHg 66%

    24 May, Friday

    Time Temperature Precipitation Wind Pressure Humidity
    00:00 +13°C° 0 mm 2 mps 622 mmHg 69%
    01:00 +13°C° 0 mm 2 mps 622 mmHg 70%
    02:00 +12°C° 0 mm 2 mps 621 mmHg 70%
    03:00 +12°C° 0 mm 2 mps 621 mmHg 70%
    04:00 +13°C° 0 mm 2 mps 622 mmHg 68%
    05:00 +13°C° 0 mm 2 mps 622 mmHg 65%
    06:00 +14°C° 0 mm 2 mps 623 mmHg 62%
    07:00 +15°C° 0 mm 1 mps 623 mmHg 55%
    08:00 +18°C° 0 mm 1 mps 624 mmHg 47%
    09:00 +20°C° 0 mm 1 mps 625 mmHg 39%
    10:00 +21°C° 0 mm 1 mps 625 mmHg 36%
    11:00 +21°C° 0 mm 2 mps 625 mmHg 33%
    12:00 +22°C° 0 mm 3 mps 625 mmHg 31%
    13:00 +24°C° 0 mm 3 mps 625 mmHg 30%
    14:00 +24°C° 0 mm 3 mps 625 mmHg 29%
    15:00 +25°C° 0 mm 3 mps 625 mmHg 28%
    16:00 +24°C° 0 mm 3 mps 625 mmHg 31%
    17:00 +22°C° 0 mm 3 mps 625 mmHg 34%
    18:00 +23°C° 0 mm 2 mps 624 mmHg 38%
    19:00 +20°C° 0 mm 2 mps 624 mmHg 45%
    20:00 +19°C° 0 mm 1 mps 624 mmHg 52%
    21:00 +16°C° 0 mm 1 mps 624 mmHg 59%
    22:00 +16°C° 0 mm 1 mps 624 mmHg 60%
    23:00 +16°C° 0 mm 1 mps 624 mmHg 60%

    25 May, Saturday

    Time Temperature Precipitation Wind Pressure Humidity
    00:00 +15°C° 0 mm 1 mps 623 mmHg 60%
    01:00 +15°C° 0 mm 1 mps 623 mmHg 60%
    02:00 +15°C° 0 mm 1 mps 623 mmHg 59%
    03:00 +14°C° 0 mm 1 mps 623 mmHg 59%
    04:00 +15°C° 0 mm 1 mps 624 mmHg 58%
    05:00 +16°C° 0 mm 1 mps 624 mmHg 56%
    06:00 +18°C° 0 mm 1 mps 625 mmHg 55%
    07:00 +20°C° 0 mm 1 mps 625 mmHg 49%
    08:00 +21°C° 0 mm 2 mps 626 mmHg 42%
    09:00 +24°C° 0 mm 2 mps 626 mmHg 36%
    10:00 +25°C° 0 mm 3 mps 626 mmHg 32%
    11:00 +26°C° 0 mm 4 mps 627 mmHg 29%
    12:00 +27°C° 0 mm 5 mps 627 mmHg 25%
    13:00 +28°C° 0 mm 5 mps 626 mmHg 24%
    14:00 +28°C° 0 mm 4 mps 626 mmHg 23%
    15:00 +28°C° 0 mm 4 mps 626 mmHg 23%
    16:00 +27°C° 0.2 mm 3 mps 626 mmHg 26%
    17:00 +27°C° 0.2 mm 2 mps 626 mmHg 29%
    18:00 +26°C° 0.2 mm 1 mps 626 mmHg 33%
    19:00 +24°C° 0.8 mm 2 mps 625 mmHg 37%
    20:00 +21°C° 0.8 mm 2 mps 625 mmHg 42%
    21:00 +19°C° 0.8 mm 2 mps 625 mmHg 47%
    22:00 +19°C° 0 mm 2 mps 624 mmHg 47%
    23:00 +18°C° 0 mm 2 mps 624 mmHg 48%
    Show more